Temperature
4 4 3 3 3 3 3 2 2 2 3 3 3 4 3 3 3 3 3 3 3 3 3 4 4 4 4 4 5 5 5 5 5 5 5 5 5 5
3 3 3 3 3 3 3 2 2 2 2 3 3 3 3 3 3 3 3 3 3 3 3 3 4 4 4 4 4 5 5 5 5 5 5 5 5 5
3 3 3 3 3 3 2 2 2 2 1 2 2 2 2 2 2 2 2 2 3 3 3 3 3 4 4 4 4 5 5 5 5 5 5 5 5 5
3 2 2 2 2 2 2 2 2 2 1 1 2 2 2 2 2 2 2 2 2 2 3 3 3 3 4 4 4 5 5 5 5 5 4 4 5 5
2 2 2 2 2 2 2 2 2 1 1 1 1 2 2 2 2 2 2 2 2 2 2 3 3 3 4 4 4 4 4 4 4 4 4 4 4 5
2 2 2 2 2 2 2 2 1 1 1 1 1 1 1 1 1 1 2 2 2 2 2 3 3 3 3 4 4 4 4 4 4 4 4 4 4 4
2 2 2 2 2 2 1 1 1 1 1 1 1 1 1 1 1 1 1 1 2 2 2 2 2 3 3 3 3 3 3 3 3 3 3 3 4 4
2 2 2 2 2 1 1 1 1 1 1 1 1 1 1 1 1 1 1 1 1 1 1 2 2 2 2 2 3 3 3 3 3 3 3 3 3 3
1 1 1 1 1 1 1 1 1 1 1 1 1 1 1 1 1 1 1 1 1 1 1 1 2 2 2 2 2 2 2 2 2 2 2 2 2 2
1 1 1 1 1 1 1 0 0 1 1 1 1 1 1 1 1 1 1 1 1 1 1 1 1 1 2 2 2 2 2 1 1 2 2 2 2 2
1 1 1 1 1 0 0 0 0 0 1 0 0 0 1 1 1 1 1 1 0 1 1 1 1 1 2 2 1 1 1 1 1 1 1 1 1 1
-0 0 0 0 -0 -0 -0 -0 -0 0 0 0 0 0 0 1 1 1 1 0 0 0 1 0 1 1 1 1 1 1 1 1 1 1 1 1 1 1
-1 -1 -1 -1 -1 -1 -1 -0 -0 -0 -0 -0 0 0 0 0 1 0 0 0 0 0 0 0 0 0 0 0 0 0 0 0 0 0 0 0 0 0
-1 -1 -1 -1 -1 -1 -1 -1 -1 -1 -1 -0 -0 -0 -0 0 0 0 0 0 0 0 0 0 0 0 0 -0 -0 -0 -0 -0 -0 -0 -0 -0 -0 0
-2 -2 -2 -2 -2 -2 -1 -1 -1 -1 -1 -1 -1 -1 -1 -0 -0 -0 -0 -0 0 0 0 0 0 0 -0 -1 -1 -1 -1 -1 -1 -1 -1 -0 -0 -0
-2 -2 -2 -2 -2 -2 -2 -2 -1 -1 -1 -1 -1 -1 -1 -1 -1 -1 -0 -0 -0 -0 -0 -0 -0 -0 -0 -1 -1 -1 -1 -1 -1 -1 -1 -1 -1 -1
-2 -2 -2 -2 -2 -2 -2 -2 -2 -2 -1 -1 -1 -1 -1 -1 -1 -1 -1 -1 -0 -1 -1 -1 -1 -1 -1 -1 -1 -1 -1 -1 -1 -1 -1 -1 -1 -1
-2 -3 -3 -3 -3 -3 -2 -2 -2 -2 -2 -1 -1 -1 -1 -1 -1 -1 -1 -1 -1 -1 -1 -1 -1 -1 -1 -1 -2 -2 -2 -2 -2 -1 -1 -1 -1 -2
-3 -3 -3 -3 -3 -3 -3 -3 -2 -2 -2 -2 -1 -1 -1 -1 -1 -1 -1 -1 -1 -1 -1 -1 -1 -1 -2 -2 -2 -2 -2 -2 -2 -2 -2 -2 -2 -2
-3 -3 -3 -3 -3 -3 -3 -3 -2 -2 -2 -2 -2 -2 -2 -2 -1 -1 -1 -1 -1 -1 -1 -1 -1 -2 -2 -2 -2 -2 -2 -2 -2 -2 -2 -2 -2 -2
-4 -4 -3 -3 -3 -3 -3 -3 -3 -3 -2 -2 -2 -2 -2 -2 -2 -1 -1 -1 -1 -1 -1 -2 -2 -2 -2 -2 -2 -2 -2 -2 -2 -2 -2 -2 -2 -2
-4 -4 -4 -4 -3 -3 -3 -3 -3 -3 -3 -2 -2 -2 -2 -2 -2 -1 -1 -1 -1 -2 -2 -2 -2 -2 -2 -2 -2 -3 -3 -2 -2 -2 -2 -2 -2 -2
-4 -4 -4 -4 -3 -3 -3 -3 -3 -3 -3 -2 -2 -2 -2 -2 -2 -2 -2 -2 -2 -2 -2 -2 -2 -2 -2 -2 -2 -3 -3 -3 -3 -3 -3 -2 -2 -2
Wind_Speed
7 7 7 7 6 6 6 6 7 11 12 7 5 5 6 7 10 9 10 16 19 20 21 20 20 20 20 21 21 22 21 21 20 20 19 19 18 18
7 8 8 7 6 6 6 6 7 9 11 8 7 7 7 9 12 10 10 16 17 18 18 18 18 18 18 19 20 21 21 20 19 18 18 17 17 17
7 8 9 8 7 7 7 7 7 7 11 10 7 7 7 8 8 8 10 10 11 16 17 17 16 17 17 17 18 18 17 16 14 14 14 13 13 13
8 8 9 8 8 7 7 8 8 8 9 11 9 7 7 7 7 7 9 9 9 13 15 15 15 16 15 15 15 14 14 12 12 11 11 10 10 9
8 9 9 9 9 8 8 8 8 8 7 8 10 7 7 7 7 8 8 6 9 10 12 12 13 14 14 14 13 11 9 7 6 5 6 6 5 5
8 9 9 9 10 9 9 9 8 8 8 8 8 7 7 6 5 6 7 5 6 8 9 10 12 13 14 13 10 7 6 4 2 2 3 3 3 4
9 9 9 11 13 10 9 8 8 7 7 7 7 7 6 5 5 5 6 6 6 5 5 6 7 7 8 9 6 5 6 5 4 4 5 6 5 3
9 9 9 10 11 13 14 13 11 10 8 8 7 7 8 7 5 6 5 6 6 3 4 6 5 6 5 4 5 6 7 8 8 8 7 7 7 7
8 8 8 8 10 8 10 12 11 13 12 9 8 9 8 7 6 6 5 5 6 5 5 6 5 5 4 5 7 7 8 8 9 9 9 8 8 8
7 8 8 8 8 8 7 7 7 7 8 7 6 7 7 6 6 6 5 4 4 4 3 4 5 4 5 4 6 7 8 8 9 9 9 9 9 9
7 7 7 7 10 10 7 6 7 6 6 7 7 7 8 8 6 3 3 2 4 4 3 2 2 3 3 3 4 8 8 9 9 10 9 9 9 8
5 6 8 8 10 9 5 5 6 6 5 5 5 6 5 5 5 3 3 2 3 3 2 2 2 2 2 3 4 4 5 8 9 10 10 10 10 6
4 4 5 10 10 9 8 4 6 6 4 4 3 3 3 2 2 2 2 1 2 2 2 1 1 1 1 1 3 3 4 4 5 6 8 10 10 8
4 4 5 9 10 10 7 6 8 7 3 2 2 2 2 2 2 3 3 3 2 1 2 1 0 1 2 2 2 3 4 4 4 5 5 8 9 10
4 6 8 10 9 7 7 8 6 3 2 2 2 2 2 2 2 2 3 4 4 5 4 4 3 3 3 2 1 2 3 4 4 4 5 5 5 5
5 6 8 9 7 7 6 4 3 2 1 1 1 1 1 1 2 2 2 3 4 5 6 7 5 4 4 3 2 2 3 2 4 5 4 4 5 4
5 4 3 4 4 3 3 3 2 2 2 1 1 1 1 1 2 2 2 2 3 3 4 5 5 5 5 4 3 3 3 3 3 4 4 5 5 5
5 3 3 3 3 3 3 3 2 2 2 1 1 1 1 1 2 2 2 3 3 3 3 2 3 4 4 5 6 3 3 3 3 4 3 3 4 5
4 3 3 3 2 2 2 2 2 2 2 1 1 1 1 2 2 2 2 3 3 3 3 2 2 3 4 4 4 5 3 3 3 4 4 3 3 4
2 3 2 2 2 2 2 1 1 1 1 1 1 1 1 2 2 2 2 3 3 3 3 3 3 3 2 1 1 4 6 3 2 3 3 3 3 3
3 3 2 2 1 1 1 1 1 1 1 1 1 2 2 2 2 2 2 4 3 3 3 3 2 3 2 2 3 3 4 6 4 2 2 2 3 4
3 2 2 2 1 1 1 1 1 1 1 1 1 2 2 2 2 2 2 3 3 3 4 3 2 3 3 4 4 3 4 5 7 8 6 3 1 2
3 3 2 2 1 1 1 1 1 1 1 1 1 2 2 2 2 2 3 3 4 4 4 4 3 4 4 4 3 3 4 4 4 5 6 9 8 6
Wind_Direction
265 264 265 264 260 258 260 263 274 290 292 289 290 285 292 296 296 293 290 291 293 293 291 290 291 291 288 287 285 283 281 279 274 269 267 267 266 266
270 266 268 267 263 259 257 260 258 266 280 284 287 293 296 302 301 299 299 301 298 297 299 296 296 297 295 291 288 284 279 275 269 265 266 267 267 266
277 276 273 271 266 263 261 259 258 259 275 286 286 289 289 295 300 302 301 297 297 300 300 302 304 304 300 298 295 291 282 275 269 268 270 268 266 267
276 280 282 280 271 268 266 262 261 258 267 283 290 289 285 286 291 297 301 301 300 302 307 308 310 309 308 305 304 301 292 280 267 264 267 269 268 268
276 277 280 279 277 275 272 269 267 266 263 272 284 286 288 292 296 296 300 302 305 307 310 314 315 317 319 316 312 311 306 292 278 268 276 274 277 280
280 277 278 274 271 274 274 268 267 267 267 269 277 283 288 288 287 297 306 309 313 313 314 316 319 323 324 321 319 325 326 326 324 311 321 321 314 306
285 281 279 277 273 272 276 272 264 263 268 268 273 285 290 291 286 292 301 312 313 311 319 326 327 325 324 328 339 4 9 22 39 39 37 34 27 10
286 286 284 280 278 280 281 281 273 266 267 266 271 274 282 285 289 296 298 307 307 322 330 325 330 330 333 336 5 24 28 39 44 42 43 43 38 42
280 284 288 288 289 283 284 285 280 272 265 259 263 266 274 278 278 284 290 295 296 305 322 318 328 331 334 352 20 27 37 39 45 47 44 42 41 44
280 277 281 284 286 286 286 288 284 279 272 269 262 268 274 272 266 267 272 290 305 311 317 311 321 328 340 350 17 37 43 45 46 46 43 40 38 34
295 293 288 282 289 294 293 292 297 299 303 296 290 288 288 289 286 287 285 292 306 314 329 322 327 337 348 7 26 42 46 47 45 43 43 41 34 28
304 305 305 304 301 302 293 289 295 299 307 314 315 311 303 303 308 280 256 262 294 303 321 349 339 351 11 31 38 30 33 39 40 41 41 40 33 30
309 313 315 319 320 317 313 298 292 299 307 309 312 320 325 332 341 343 331 248 263 282 288 327 332 17 58 16 22 29 35 32 30 36 37 36 33 33
309 312 314 321 324 324 319 313 314 316 312 315 326 331 337 344 351 359 13 25 17 319 313 343 88 90 84 54 22 17 19 19 28 32 27 27 27 28
317 319 322 324 326 327 326 323 326 329 324 326 319 317 324 332 352 17 28 37 37 28 24 40 72 78 77 81 49 17 11 13 27 33 27 23 20 16
314 318 323 326 325 323 326 335 338 327 317 313 303 318 342 358 9 29 34 30 48 39 32 40 49 71 81 73 72 38 23 16 11 15 17 19 15 23
315 319 329 329 335 333 335 342 350 348 351 353 355 10 9 14 24 35 41 42 61 55 45 47 50 62 67 64 60 43 38 31 17 6 15 21 18 20
323 321 323 322 320 326 337 347 355 1 359 359 14 13 19 30 45 42 46 67 76 69 65 57 57 54 50 43 36 56 44 32 11 9 17 30 18 8
325 316 310 310 313 325 336 341 342 348 352 0 17 28 38 51 66 62 62 75 75 76 72 57 49 69 69 50 16 24 40 20 16 17 17 24 13 349
319 309 305 305 311 324 332 342 352 1 13 14 32 47 63 70 74 74 75 86 89 88 75 53 47 54 75 85 31 8 13 25 27 20 10 12 6 352
322 316 315 316 321 327 331 351 2 8 13 19 57 62 69 77 79 82 89 90 89 90 85 59 42 60 78 72 65 32 15 21 28 24 8 12 7 11
323 319 321 320 323 331 358 16 26 31 26 33 69 72 69 77 88 92 99 101 89 90 86 72 61 55 58 76 74 47 21 16 26 34 33 34 31 23
324 324 327 331 335 7 43 38 36 39 36 51 85 84 76 82 91 96 99 100 99 98 94 80 63 59 65 78 79 58 36 21 19 29 28 30 44 53
Height
1459 1458 1456 1454 1453 1451 1450 1448 1445 1437 1430 1428 1427 1425 1424 1421 1418 1415 1412 1410 1407 1405 1402 1399 1396 1393 1391 1389 1387 1386 1384 1383 1382 1382 1382 1382 1382 1383
1454 1452 1450 1448 1447 1445 1443 1442 1440 1436 1428 1423 1422 1421 1419 1416 1414 1411 1407 1404 1401 1399 1396 1392 1390 1386 1384 1382 1379 1377 1376 1375 1374 1373 1374 1374 1374 1375
1448 1446 1443 1442 1440 1438 1437 1435 1433 1431 1426 1419 1419 1417 1414 1411 1408 1406 1403 1399 1396 1393 1390 1387 1384 1381 1378 1375 1372 1370 1368 1366 1366 1366 1366 1366 1367 1368
1442 1440 1437 1436 1434 1432 1431 1429 1427 1425 1423 1417 1413 1412 1410 1407 1404 1401 1398 1395 1393 1389 1386 1382 1379 1376 1373 1369 1367 1364 1361 1359 1359 1359 1360 1360 1361 1362
1437 1434 1432 1430 1428 1427 1425 1423 1421 1419 1417 1414 1409 1407 1405 1403 1400 1397 1394 1391 1389 1385 1382 1378 1375 1372 1368 1365 1362 1359 1357 1355 1354 1354 1355 1356 1356 1356
1431 1429 1427 1425 1423 1421 1419 1417 1416 1414 1412 1409 1405 1403 1401 1399 1396 1393 1389 1387 1384 1382 1378 1375 1371 1368 1365 1362 1359 1357 1355 1353 1352 1352 1353 1352 1353 1353
1426 1424 1422 1420 1418 1416 1414 1412 1410 1408 1406 1404 1401 1398 1396 1394 1392 1390 1387 1384 1381 1379 1375 1371 1368 1365 1362 1360 1357 1355 1353 1351 1351 1351 1351 1350 1350 1350
1420 1418 1416 1414 1412 1411 1409 1407 1406 1404 1401 1399 1396 1394 1392 1391 1389 1387 1384 1381 1377 1376 1373 1369 1367 1363 1361 1358 1357 1355 1353 1351 1350 1350 1350 1350 1349 1349
1415 1413 1411 1409 1407 1405 1403 1401 1400 1398 1397 1396 1392 1390 1388 1387 1385 1383 1381 1379 1376 1374 1372 1367 1365 1362 1360 1358 1357 1355 1354 1352 1351 1351 1350 1350 1349 1349
1410 1408 1406 1403 1402 1400 1398 1396 1394 1392 1391 1390 1389 1387 1385 1383 1382 1380 1378 1376 1373 1372 1371 1367 1363 1361 1359 1358 1357 1356 1355 1354 1353 1352 1352 1351 1351 1350
1405 1403 1401 1399 1397 1396 1394 1391 1389 1387 1386 1385 1384 1382 1381 1379 1378 1377 1375 1373 1370 1369 1368 1366 1363 1360 1358 1357 1357 1357 1356 1355 1355 1354 1353 1353 1352 1351
1400 1398 1397 1395 1393 1392 1390 1387 1385 1383 1382 1380 1379 1378 1376 1375 1374 1373 1372 1371 1369 1367 1366 1365 1362 1361 1359 1358 1358 1358 1357 1357 1356 1355 1355 1354 1353 1352
1396 1394 1393 1391 1389 1388 1386 1384 1382 1381 1379 1377 1375 1374 1373 1372 1371 1370 1370 1369 1368 1366 1365 1364 1362 1361 1361 1360 1360 1360 1359 1358 1357 1356 1356 1355 1354 1353
1394 1392 1390 1388 1386 1384 1382 1381 1379 1378 1376 1375 1373 1372 1371 1370 1369 1369 1368 1368 1367 1366 1365 1364 1363 1362 1361 1361 1361 1361 1361 1360 1359 1358 1357 1357 1356 1354
1391 1389 1387 1385 1383 1381 1380 1378 1377 1375 1374 1373 1371 1370 1370 1369 1369 1368 1367 1367 1366 1366 1365 1365 1364 1364 1363 1362 1362 1362 1362 1361 1361 1360 1359 1358 1356 1355
1388 1386 1385 1383 1381 1379 1377 1376 1375 1374 1373 1372 1371 1370 1370 1369 1369 1368 1368 1367 1367 1367 1367 1366 1366 1366 1365 1365 1365 1364 1364 1364 1363 1362 1361 1360 1359 1357
1386 1384 1381 1380 1378 1377 1376 1374 1374 1373 1372 1371 1370 1370 1369 1369 1369 1369 1368 1368 1368 1368 1368 1368 1368 1367 1367 1367 1367 1367 1367 1366 1366 1365 1363 1361 1361 1360
1383 1381 1379 1378 1377 1375 1374 1373 1373 1372 1371 1370 1370 1370 1369 1369 1369 1369 1369 1369 1369 1369 1369 1369 1369 1369 1369 1370 1371 1370 1369 1368 1368 1367 1365 1364 1363 1362
1380 1378 1377 1376 1375 1375 1374 1373 1372 1371 1371 1370 1370 1369 1369 1369 1370 1370 1370 1370 1371 1371 1371 1371 1371 1371 1370 1371 1373 1373 1371 1370 1369 1369 1367 1366 1365 1365
1378 1377 1375 1375 1374 1374 1373 1372 1372 1371 1370 1370 1370 1370 1370 1370 1370 1371 1371 1372 1372 1372 1373 1373 1373 1373 1373 1374 1373 1374 1374 1373 1372 1370 1370 1369 1368 1368
1376 1375 1374 1374 1373 1373 1372 1372 1371 1371 1370 1370 1370 1370 1371 1371 1371 1372 1373 1374 1374 1374 1374 1375 1376 1376 1376 1376 1375 1375 1376 1376 1375 1373 1372 1371 1370 1369
1375 1374 1373 1373 1372 1372 1371 1371 1371 1370 1370 1370 1371 1371 1372 1372 1373 1374 1374 1375 1375 1376 1376 1377 1378 1378 1378 1377 1377 1377 1377 1377 1377 1376 1375 1374 1373 1371
1374 1373 1372 1372 1371 1371 1370 1370 1370 1370 1371 1371 1371 1372 1372 1373 1374 1375 1375 1376 1377 1377 1378 1378 1379 1379 1380 1380 1379 1379 1379 1379 1378 1378 1377 1377 1376 1375